Weather Service Report


116 
ASUS42 KCAE 212110
RWRCAE
REGIONAL WEATHER ROUNDUP
NATIONAL WEATHER SERVICE COLUMBIA SC
400 PM EST TUE NOV 21 2017

NOTE: "FAIR" INDICATES FEW OR NO CLOUDS BELOW 12,000 FEET WITH NO
SIGNIFICANT WEATHER AND/OR OBSTRUCTIONS TO VISIBILITY.

NOT ALL STATIONS ARE QUALITY CONTROLLED BY THE NATIONAL 
WEATHER SERVICE. USE DATA WITH CAUTION...ESPECIALLY 
DEWPOINT OBSERVATIONS.

SCZ001>056-GAZ040-063>065-077-212200-
...UPSTATE SOUTH CAROLINA...
  
CITY           SKY/WX    TMP DP  RH WIND       PRES   REMARKS
ANDERSON       CLOUDY    61  49  64 CALM      30.06F                  
LIBERTY        CLOUDY    61  47  60 N3        30.06S                  
SPARTANBURG    CLOUDY    57  45  62 CALM      30.06F                  
CLEMSON        CLOUDY    61  50  67 CALM      30.07S                  
GREENVILLE     CLOUDY    62  47  57 CALM      30.07F                  
GREENWOOD      CLOUDY    61  51  70 CALM      30.07S                  
GREER          CLOUDY    61  47  59 CALM      30.07F                  
ROCK HILL      CLOUDY    62  50  64 CALM      30.07F                  
CHESTER        CLOUDY    59  46  63 CALM      30.07F                  
LAURENS        CLOUDY    59  48  67 CALM      30.06S                  


...CENTRAL SOUTH CAROLINA...
  
CITY           SKY/WX    TMP DP  RH WIND       PRES   REMARKS
COLUMBIA APT   CLOUDY    64  53  67 E5        30.05F                  
COLUMBIA OWENS PTSUNNY   65  51  60 CALM      30.06F                  
MCENTIRE ANGB  CLOUDY    64  52  65 NE3       30.05F                  
ORANGEBURG     PTSUNNY   65  53  65 NE6       30.04F                  
SUMTER SHAW    CLOUDY    66  52  61 NE5       30.03F                  
NEWBERRY       PTCLDY    63  52  67 NE5       30.08F                  
AIKEN          DRIZZLE   59  57  94 E5        30.07F                  
BARNWELL         N/A     68  57  68 NE6       30.03S                  
MANNING        FAIR      64  36  34 MISG      30.05S                  
CAMDEN         CLOUDY    63  52  67 CALM      30.07F                  
LANCASTER      CLOUDY    63  50  63 CALM      30.07F                  
WINNSBORO      CLOUDY    61  50  67 E3        30.06S                  


...EASTERN AND COASTAL SOUTH CAROLINA...
  
CITY           SKY/WX    TMP DP  RH WIND       PRES   REMARKS
MYRTLE BEACH   CLOUDY    64  57  78 E8        30.09F                  
N MYRTLE BCH   CLOUDY    67  56  67 E7        30.08S                  
CONWAY         FAIR      64  57  77 E3        30.08F                  
MARION         FAIR      63  52  67 E5        30.08F                  
HARTSVILLE     CLOUDY    63  50  63 E5        30.06F                  
FLORENCE       CLOUDY    65  52  62 E7        30.08S                  
DARLINGTON     MOSUNNY   65  53  65 E5        30.08F                  
CHARLESTON APT CLOUDY    68  58  70 E8        30.03F                  
MOUNT PLEASANT FAIR      66  59  77 CALM      30.04F                  
WALTERBORO     CLOUDY    68  59  73 E5        30.04S                  
BEAUFORT       CLOUDY    68  60  75 E5        30.02S                  


...EASTERN GEORGIA...
  
CITY           SKY/WX    TMP DP  RH WIND       PRES   REMARKS
AUGUSTA BUSH F CLOUDY    67  55  65 CALM      30.02F                  
AUGUSTA DANIEL CLOUDY    67  54  63 SW3       30.04S                  
THOMSON        CLOUDY    62  55  76 E6        30.08F                  
WASHINGTON     FAIR      61  54  77 CALM      30.04F                  
CLAXTON        HVY RAIN  65  64  95 CALM      30.02S                  
SYLVANIA       CLOUDY    69  60  72 CALM      30.03S                  
STATESBORO     RAIN      65  59  80 S5        30.03R                  
SAVANNAH       CLOUDY    70  60  70 NE6       30.00S                  


...SOUTHERN NORTH CAROLINA...
  
CITY           SKY/WX    TMP DP  RH WIND       PRES   REMARKS
CHARLOTTE      CLOUDY    61  47  59 CALM      30.08F                  
MONROE         CLOUDY    64  49  57 CALM      30.07S                  
WADESBORO      MOCLDY    64  47  53 S3        30.08S                  
RUTHERFORDTON  CLOUDY    60  47  60 S6        30.08S                  
ASHEVILLE      CLOUDY    57  48  72 S9        30.06F                  

$$
  

Return to Home page


Western Regional Climate Center, wrcc@dri.edu